Location: Alsip
(41.6689°N, 87.7387°W)
Time: 14:26:54
(UTC+00:00)

Cosmos 1743 Rocket - Pass Details

Date: 14 July 2020
Orbit: 605 x 631 km, 82.6° (Epoch: 04 August)

Event Time Altitude Azimuth Distance (km) Brightness Sun altitude
Exits shadow 04:42:59 45° 65° (ENE) 830 4.1 -24.5°
Drops below altitude 10° 04:46:36 10° 19° (NNE) 1,977 6.8 -24.7°
Sets 04:48:53 0° 14° (NNE) 2,891 7.9 -24.8°
